[[{"header":{"parameterUnit":"m.s-1","parameterCategory":1,"la1":30.2991,"la2":30.254,"lo1":-89.0895,"lo2":-89.0444,"dy":0.0017,"dx":0.0017,"nx":28,"ny":28,"refTime":"2026-02-07T03:00:00:Z","depth":0,"parameterNumber":2,"parameterNumberName":"U-component_of_WINDS"},"data":[0,0,0,0,0,0,0,0,0,0,0,0,0,0,0,0,0,0,0,0,0,0,0,0,0,0,0,0,0,0,0,0,0,0,0,0,0,0,0,0,0,0,0,0,0,0,0,0,0,0,0,0,0,0,0,0,0,0,-1.1902,-1.1901,0,-1.183,-1.183,-1.1829,-1.1763,-1.1763,-1.1762,-1.1761,-1.1688,-1.1686,-1.1685,0,0,0,0,0,0,0,0,0,0,0,0,0,-1.1981,-1.198,-1.1902,-1.1901,-1.19,-1.1831,-1.183,-1.1829,-1.1764,-1.1763,-1.1762,-1.1761,-1.1688,-1.1687,-1.1685,0,0,0,0,0,0,0,0,0,0,0,0,0,-1.1932,-1.198,-1.1902,-1.1859,-1.1855,-1.1831,-1.183,-1.1828,-1.1764,-1.1763,-1.1761,-1.176,-1.1688,-1.1687,-1.1685,-1.1697,0,0,-1.1679,-1.1678,0,0,0,0,0,0,0,0,-1.1935,-1.1929,-1.1866,-1.1862,-1.1857,-1.1805,-1.183,-1.1784,-1.1764,-1.1798,-1.1761,-1.176,-1.1727,-1.1722,-1.1712,-1.1694,-1.1691,-1.1679,-1.1678,-1.1677,-1.1677,0,0,0,0,0,0,0,-1.1938,-1.1932,-1.1873,-1.1866,-1.186,-1.1843,-1.1835,-1.1821,-1.177,-1.1795,-1.179,-1.1783,-1.1725,-1.1713,-1.1709,-1.169,-1.1679,-1.1678,-1.1676,-1.1676,-1.1679,-1.168,0,0,0,0,0,0,-1.1948,-1.1935,-1.1876,-1.1871,-1.1894,-1.1843,-1.1834,-1.1823,-1.177,-1.1761,-1.1784,-1.178,-1.1717,-1.1712,-1.1706,-1.1718,-1.1677,-1.1675,-1.1674,-1.1678,-1.1679,-1.1681,0,0,0,0,0,0,-1.195,-1.1944,-1.1879,-1.1902,-1.1892,-1.1843,-1.1831,-1.1822,-1.1811,-1.1762,-1.1752,-1.1782,-1.1716,-1.1709,-1.17,-1.1715,-1.1675,-1.1673,-1.1676,-1.1678,-1.168,-1.1742,0,0,0,0,0,0,-1.1953,-1.1945,-1.1949,-1.1902,-1.1891,-1.1874,-1.1832,-1.1821,-1.1808,-1.1802,-1.1757,-1.1749,-1.1715,-1.1703,-1.1698,-1.1712,-1.1672,-1.1675,-1.1677,-1.1679,-1.1739,-1.1746,-1.1752,0,0,0,0,0,-1.1956,-1.1969,-1.195,-1.1943,-1.1896,-1.1875,-1.1869,-1.1829,-1.1809,-1.1813,-1.1782,-1.175,-1.1714,-1.1703,-1.1697,-1.171,-1.1674,-1.1677,-1.1679,-1.1736,-1.1744,-1.1752,0,0,0,0,0,0,-1.2019,-1.1962,-1.194,-1.1939,-1.1912,-1.1864,-1.1868,-1.1839,-1.1818,-1.1813,-1.1765,-1.1755,-1.1752,-1.173,-1.1719,-1.1719,-1.169,-1.1691,-1.1734,-1.1742,-1.1749,-1.1755,-1.167,0,0,0,0,0,-1.2033,-1.2021,-1.1972,-1.1975,-1.1963,-1.1918,-1.1907,-1.1879,-1.185,-1.1838,-1.1806,-1.1778,-1.176,-1.175,-1.1731,-1.1734,-1.1724,-1.174,-1.1747,-1.1753,-1.1755,-1.1756,-1.1763,-1.1689,-1.1689,-1.1689,0,0,-1.2061,-1.2029,-1.2024,-1.1987,-1.1963,-1.1952,-1.1909,-1.1899,-1.189,-1.1836,-1.1827,-1.1802,-1.1768,-1.1766,-1.1763,-1.1747,-1.1773,-1.1756,-1.1761,-1.176,-1.176,-1.1767,-1.1773,-1.1691,-1.1691,-1.1691,0,0,-1.2107,-1.2081,-1.2082,-1.2059,-1.2023,-1.1993,-1.1993,-1.1949,-1.1931,-1.192,-1.188,-1.1868,-1.1839,-1.1816,-1.1801,-1.1839,-1.1809,-1.1833,-1.1869,-1.1871,-1.1877,-1.1882,-1.1896,-1.1902,-1.1836,-1.1836,-1.1836,0,-1.2147,-1.2129,-1.2086,-1.2078,-1.2063,-1.2014,-1.2014,-1.1994,-1.1954,-1.1945,-1.1927,-1.1889,-1.1863,-1.1855,-1.1864,-1.1853,-1.1852,-1.1839,-1.1879,-1.1884,-1.1888,-1.1901,-1.1907,-1.1839,-1.1839,-1.1838,-1.1838,0,-1.218,-1.2168,-1.2172,-1.2136,-1.2121,-1.2117,-1.2074,-1.2064,-1.2037,-1.2009,-1.1998,-1.1965,-1.1938,-1.1934,-1.1907,-1.1923,-1.1914,-1.1888,-1.1858,-1.1899,-1.1911,-1.1915,-1.1844,-1.1843,-1.1842,-1.1841,0,0,-1.2265,-1.2204,-1.2207,-1.219,-1.2147,-1.2136,-1.213,-1.2105,-1.2098,-1.2072,-1.2066,-1.2042,-1.2018,-1.2001,-1.1971,-1.1972,-1.2005,-1.1946,-1.1945,-1.196,-1.2021,-1.2042,-1.2049,-1.1985,-1.1985,-1.1986,-1.2025,0,-1.2305,-1.2293,-1.2253,-1.2252,-1.2241,-1.2194,-1.2189,-1.2162,-1.2135,-1.2121,-1.2091,-1.2075,-1.2044,-1.2034,-1.2033,-1.2002,-1.2017,-1.1998,-1.198,-1.198,-1.1992,-1.2055,-1.2076,-1.2114,-1.2029,-1.2029,-1.203,0,-1.2351,-1.2328,-1.2327,-1.2284,-1.2278,-1.2274,-1.2248,-1.2235,-1.2203,-1.2184,-1.2165,-1.2131,-1.2122,-1.2093,-1.208,-1.2068,-1.2058,-1.2041,-1.2042,-1.204,-1.2009,-1.2056,-1.2125,-1.2132,-1.2037,-1.2036,-1.2036,0,-1.2415,-1.2384,-1.2379,-1.2366,-1.2316,-1.2315,-1.2294,-1.2261,-1.2248,-1.2224,-1.2216,-1.2191,-1.2179,-1.2161,-1.2122,-1.2103,-1.2114,-1.2081,-1.2098,-1.2099,-1.2103,-1.2104,-1.2174,-1.2094,-1.2094,-1.2094,-1.2094,0,-1.2465,-1.2466,-1.2407,-1.2405,-1.2405,-1.2359,-1.236,-1.2334,-1.2306,-1.2297,-1.2254,-1.2247,-1.2195,-1.2181,-1.215,-1.2145,-1.2139,-1.2124,-1.2116,-1.2129,-1.2131,-1.2123,-1.212,-1.2096,-1.2095,-1.2095,-1.2095,0,-1.2538,-1.2498,-1.249,-1.2443,-1.2432,-1.2434,-1.2394,-1.2389,-1.2359,-1.2349,-1.2344,-1.2298,-1.228,-1.2239,-1.2209,-1.2189,-1.2192,-1.2176,-1.2203,-1.2199,-1.2219,-1.2218,-1.2287,-1.2294,-1.2209,-1.221,-1.2211,0,-1.2573,-1.2573,-1.2527,-1.2518,-1.2499,-1.2485,-1.2472,-1.2427,-1.2415,-1.2379,-1.2379,-1.2358,-1.2339,-1.2312,-1.2276,-1.2253,-1.2238,-1.2264,-1.2234,-1.2248,-1.224,-1.2242,-1.2242,-1.2271,-1.2272,-1.2273,-1.2274,0,-1.2641,-1.2621,-1.2604,-1.2581,-1.2566,-1.2545,-1.2522,-1.2517,-1.2466,-1.2454,-1.2436,-1.2421,-1.2392,-1.2371,-1.2343,-1.2321,-1.229,-1.2283,-1.2286,-1.23,-1.2316,-1.2309,-1.2223,-1.2282,-1.2281,-1.2281,-1.228,-1.228,-1.2697,-1.2695,-1.2662,-1.2645,-1.2622,-1.2601,-1.2595,-1.2565,-1.2548,-1.2521,-1.2495,-1.248,-1.2447,-1.2407,-1.2387,-1.2374,-1.2358,-1.2362,-1.2363,-1.2365,-1.2371,-1.2317,-1.2368,-1.2368,-1.2368,-1.2367,-1.2367,0,-1.2764,-1.274,-1.2725,-1.2693,-1.268,-1.265,-1.2622,-1.2613,-1.26,-1.2573,-1.2555,-1.2534,-1.2514,-1.2476,-1.2452,-1.2449,-1.2434,-1.2445,-1.2446,-1.2441,-1.2386,-1.2387,-1.2458,-1.2458,-1.2458,-1.2458,-1.2458,-1.2458,-1.2797,-1.2793,-1.2769,-1.2753,-1.2729,-1.2714,-1.2701,-1.2681,-1.2659,-1.2638,-1.2621,-1.2597,-1.2565,-1.2539,-1.2519,-1.2508,-1.2503,-1.2519,-1.2503,-1.2453,-1.2445,-1.2437,-1.2437,-1.2517,-1.2517,-1.2559,-1.256,-1.256]},{"header":{"parameterUnit":"m.s-1","parameterCategory":1,"la1":30.2991,"la2":30.254,"lo1":-89.0895,"lo2":-89.0444,"dy":0.0017,"dx":0.0017,"nx":28,"ny":28,"refTime":"2026-02-07T03:00:00:Z","depth":0,"parameterNumber":3,"parameterNumberName":"V-component_of_WINDS"},"data":[0,0,0,0,0,0,0,0,0,0,0,0,0,0,0,0,0,0,0,0,0,0,0,0,0,0,0,0,0,0,0,0,0,0,0,0,0,0,0,0,0,0,0,0,0,0,0,0,0,0,0,0,0,0,0,0,0,0,-2.6149,-2.615,0,-2.618,-2.618,-2.618,-2.619,-2.619,-2.619,-2.619,-2.6218,-2.6219,-2.622,0,0,0,0,0,0,0,0,0,0,0,0,0,-2.6099,-2.61,-2.6149,-2.615,-2.615,-2.618,-2.618,-2.618,-2.619,-2.619,-2.619,-2.619,-2.6218,-2.6219,-2.622,0,0,0,0,0,0,0,0,0,0,0,0,0,-2.6124,-2.61,-2.6149,-2.6159,-2.616,-2.618,-2.618,-2.6181,-2.619,-2.619,-2.619,-2.619,-2.6218,-2.6219,-2.622,-2.6232,0,0,-2.6224,-2.6225,0,0,0,0,0,0,0,0,-2.6123,-2.6126,-2.6157,-2.6158,-2.6159,-2.6181,-2.6173,-2.6198,-2.619,-2.6179,-2.619,-2.619,-2.6206,-2.6208,-2.6214,-2.6233,-2.6235,-2.6224,-2.6225,-2.6226,-2.6226,0,0,0,0,0,0,0,-2.6121,-2.6125,-2.6161,-2.6157,-2.6159,-2.6161,-2.6164,-2.6178,-2.6193,-2.618,-2.618,-2.6184,-2.6206,-2.6213,-2.6215,-2.6235,-2.6224,-2.6225,-2.6226,-2.6227,-2.6269,-2.6269,0,0,0,0,0,0,-2.6118,-2.6123,-2.616,-2.6162,-2.614,-2.6162,-2.6166,-2.6174,-2.6193,-2.6195,-2.6184,-2.6184,-2.6211,-2.6213,-2.6216,-2.6234,-2.6226,-2.6227,-2.6228,-2.6269,-2.6269,-2.6269,0,0,0,0,0,0,-2.6117,-2.6121,-2.6159,-2.6143,-2.6148,-2.6163,-2.6172,-2.6175,-2.6181,-2.6196,-2.6199,-2.6188,-2.6211,-2.6214,-2.6229,-2.6235,-2.6227,-2.6229,-2.6268,-2.6269,-2.6269,-2.6267,0,0,0,0,0,0,-2.6115,-2.6121,-2.6125,-2.6143,-2.6149,-2.6172,-2.6173,-2.6176,-2.6184,-2.6185,-2.6201,-2.6203,-2.6211,-2.6227,-2.623,-2.6236,-2.623,-2.6268,-2.6268,-2.6269,-2.6267,-2.6268,-2.6268,0,0,0,0,0,-2.6113,-2.6122,-2.6125,-2.613,-2.6155,-2.6172,-2.6175,-2.6185,-2.6184,-2.6189,-2.6199,-2.6202,-2.6233,-2.6228,-2.6232,-2.6239,-2.6268,-2.6268,-2.6269,-2.6267,-2.6267,-2.6268,0,0,0,0,0,0,-2.6102,-2.6124,-2.6128,-2.6143,-2.6156,-2.6174,-2.618,-2.6185,-2.6197,-2.6197,-2.6208,-2.6211,-2.6226,-2.6234,-2.6228,-2.6253,-2.6251,-2.6252,-2.6247,-2.6248,-2.6249,-2.6247,-2.6231,0,0,0,0,0,-2.6102,-2.6114,-2.6133,-2.6144,-2.615,-2.6164,-2.6172,-2.6179,-2.6192,-2.6197,-2.6208,-2.622,-2.6233,-2.6241,-2.6253,-2.6268,-2.6273,-2.6274,-2.6275,-2.6275,-2.6277,-2.6288,-2.629,-2.6272,-2.6272,-2.6272,0,0,-2.61,-2.6114,-2.6121,-2.6142,-2.6153,-2.6166,-2.6168,-2.6181,-2.6191,-2.6198,-2.6214,-2.6223,-2.6237,-2.6253,-2.626,-2.626,-2.6283,-2.6276,-2.6277,-2.6278,-2.6289,-2.6291,-2.6293,-2.6272,-2.6272,-2.6272,0,0,-2.6105,-2.6116,-2.6128,-2.6139,-2.6157,-2.6166,-2.6169,-2.6187,-2.6194,-2.621,-2.6217,-2.6229,-2.6249,-2.6261,-2.6269,-2.6281,-2.6286,-2.6285,-2.6289,-2.63,-2.6301,-2.6302,-2.6309,-2.6311,-2.6286,-2.6286,-2.6286,0,-2.6101,-2.6121,-2.6133,-2.6147,-2.6157,-2.6166,-2.6179,-2.6189,-2.6209,-2.6216,-2.6215,-2.6244,-2.6254,-2.6274,-2.6277,-2.6283,-2.6288,-2.6283,-2.63,-2.6301,-2.6303,-2.6309,-2.6312,-2.6286,-2.6286,-2.6286,-2.6286,0,-2.6116,-2.6131,-2.6138,-2.616,-2.6171,-2.6184,-2.6198,-2.6207,-2.6214,-2.6224,-2.6242,-2.6255,-2.6271,-2.6276,-2.6281,-2.6298,-2.6297,-2.6298,-2.6296,-2.6305,-2.6311,-2.6313,-2.6286,-2.6286,-2.6286,-2.6286,0,0,-2.6113,-2.6144,-2.6146,-2.6158,-2.6179,-2.619,-2.6204,-2.6222,-2.6231,-2.6245,-2.6258,-2.6277,-2.628,-2.6289,-2.6296,-2.6305,-2.6318,-2.6305,-2.6306,-2.6309,-2.6339,-2.634,-2.6342,-2.632,-2.6321,-2.6321,-2.6339,0,-2.6122,-2.6149,-2.6162,-2.6184,-2.6198,-2.6209,-2.6222,-2.6236,-2.6247,-2.626,-2.6271,-2.6286,-2.6286,-2.6293,-2.6302,-2.6314,-2.6324,-2.6313,-2.6334,-2.6334,-2.6331,-2.6345,-2.6345,-2.6361,-2.6341,-2.6342,-2.6342,0,-2.6135,-2.6152,-2.6176,-2.6199,-2.6205,-2.6217,-2.6236,-2.6249,-2.6266,-2.6273,-2.6286,-2.6293,-2.6309,-2.6306,-2.633,-2.6322,-2.6331,-2.6339,-2.634,-2.6343,-2.6339,-2.6351,-2.6366,-2.6369,-2.6345,-2.6345,-2.6345,0,-2.6133,-2.6161,-2.618,-2.6189,-2.6215,-2.6224,-2.6235,-2.6252,-2.6264,-2.628,-2.6288,-2.6305,-2.6315,-2.6328,-2.6341,-2.6337,-2.6364,-2.6361,-2.6371,-2.6371,-2.6377,-2.6377,-2.6396,-2.638,-2.638,-2.638,-2.638,0,-2.6142,-2.6157,-2.618,-2.6192,-2.621,-2.6224,-2.6241,-2.6253,-2.6269,-2.6284,-2.6293,-2.6306,-2.6321,-2.6336,-2.6346,-2.6366,-2.6369,-2.6376,-2.6379,-2.6376,-2.6376,-2.6383,-2.6383,-2.6381,-2.6381,-2.6381,-2.6381,0,-2.6142,-2.6159,-2.6181,-2.6205,-2.6212,-2.6224,-2.6245,-2.6257,-2.6269,-2.6287,-2.6292,-2.6311,-2.633,-2.6344,-2.6367,-2.6374,-2.6396,-2.6397,-2.639,-2.6392,-2.6402,-2.6402,-2.6428,-2.6433,-2.6412,-2.6413,-2.6413,0,-2.6148,-2.616,-2.6187,-2.6199,-2.621,-2.6228,-2.6241,-2.6256,-2.6268,-2.6291,-2.6301,-2.6321,-2.6338,-2.6369,-2.6384,-2.6403,-2.6406,-2.6414,-2.6409,-2.6407,-2.6409,-2.6409,-2.6411,-2.6415,-2.6415,-2.6415,-2.6415,0,-2.6156,-2.6165,-2.6183,-2.6205,-2.622,-2.6238,-2.6255,-2.6264,-2.6283,-2.6296,-2.6317,-2.6331,-2.6357,-2.6378,-2.6399,-2.641,-2.6417,-2.6417,-2.6421,-2.6419,-2.6416,-2.642,-2.6394,-2.6416,-2.6416,-2.6416,-2.6416,-2.6416,-2.616,-2.6173,-2.6196,-2.6216,-2.6232,-2.6249,-2.6263,-2.6278,-2.6296,-2.632,-2.6328,-2.635,-2.637,-2.64,-2.6411,-2.6429,-2.6429,-2.6433,-2.6435,-2.6436,-2.6438,-2.6412,-2.6433,-2.6433,-2.6433,-2.6433,-2.6433,0,-2.6171,-2.6187,-2.6206,-2.6233,-2.625,-2.6256,-2.6276,-2.629,-2.631,-2.6329,-2.6347,-2.6372,-2.6393,-2.6411,-2.6433,-2.6444,-2.6447,-2.6449,-2.6449,-2.6452,-2.6435,-2.6431,-2.6446,-2.6446,-2.6446,-2.6446,-2.6446,-2.6446,-2.6179,-2.6202,-2.6214,-2.6245,-2.626,-2.6284,-2.6296,-2.6312,-2.6328,-2.6356,-2.6375,-2.6387,-2.6406,-2.643,-2.645,-2.6454,-2.6463,-2.6464,-2.647,-2.6454,-2.6453,-2.6451,-2.6448,-2.6466,-2.6466,-2.6485,-2.6486,-2.6486]}]]